Tracking 20040 objects as of 19-Nov-2019
Live streaming from Space Station
objects crossing your sky now

COSMOS 2380 (GLONASS)

Track COSMOS 2380 (GLONASS) now!
COSMOS 2380 (GLONASS) is classified as:


NORAD ID: 26989
Int'l Code: 2001-053C
Perigee: 19,125.3 km
Apogee: 19,148.5 km
Inclination: 63.0 °
Period: 675.7 minutes
Semi major axis: 25507 km
RCS: 1.9952 m2 (large)
Launch date: December 1, 2001
Source: Commonwealth of Independent States (former USSR) (CIS)
Launch site: TYURATAM MISSILE AND SPACE COMPLEX (TTMTR)
aabbcc
Your satellite tracking list
Your tracking list is empty




NASA's NSSDC Master Catalog

Two Line Element Set (TLE):
1 26989U 01053C   19322.50648385  .00000100  00000-0  00000+0 0  9999
2 26989  63.0048 143.4535 0004551  29.2725 342.3209  2.13103157139801
Source of the keplerian elements: AFSPC